Regional Weather Roundup
Issued by NWS San Angelo, TX

Home | Current Version | Previous Version | Text Only | Print | Product List | Glossary On
Versions: 1 2 3 4 5 6 7 8 9 10 11 12 13 14 15 16 17 18 19 20 21 22 23 24 25 26 27 28 29 30 31 32 33 34 35 36 37 38 39 40 41 42 43 44 45 46 47 48 49 50
263
ASUS44 KSJT 270011
RWRSJT
WEST CENTRAL TEXAS REGIONAL WEATHER ROUNDUP
NATIONAL WEATHER SERVICE SAN ANGELO TX
700 PM CDT MON SEP 26 2016

NOTE: "FAIR" INDICATES FEW OR NO CLOUDS BELOW 12,000 FEET WITH NO
SIGNIFICANT WEATHER AND/OR OBSTRUCTIONS TO VISIBILITY.

TXZ049-054-064>066-071>073-076>078-098-099-113-114-127-128-139-140-
154-155-168>170-270100
...LOCATIONS ACROSS WEST CENTRAL TEXAS...

CITY           SKY/WX    TMP DP  RH WIND       PRES   REMARKS
SAN ANGELO     CLOUDY    70  54  56 N13       30.18R
ABILENE        CLOUDY    68  51  54 NE7       30.19R
DYESS AFB      CLOUDY    68  48  49 N9        30.18R
JUNCTION       CLOUDY    64  50  60 N5        30.17R
SWEETWATER     CLOUDY    66  45  46 NE7       30.24R
BROWNWOOD      CLOUDY    68  55  64 N3        30.15R
COLEMAN        CLOUDY    68  55  64 N7        30.17R
SONORA         CLOUDY    64  55  72 N8        30.23S
OZONA          CLOUDY    64  50  59 NE12      30.23S
BRADY          NOT AVBL
$$

TEXAS PANHANDLE/OKLAHOMA PANHANDLE

CITY           SKY/WX    TMP DP  RH WIND       PRES   REMARKS
AMARILLO       PTCLDY    68  37  32 E6        30.29S
BORGER         CLEAR     72  34  24 SE5       30.25F
CANADIAN       CLEAR     70  41  34 CALM      30.24S
DALHART        CLEAR     73  32  22 CALM      30.29F
DUMAS          CLEAR     72  35  25 S6        30.27F
GUYMON         NOT AVBL
HEREFORD       PTCLDY    67  40  36 E3        30.30F
PAMPA          CLEAR     67  41  38 E3        30.28F
PERRYTON       CLEAR     75  34  22 SE5       30.24S
$$

SOUTHERN PANHANDLE/SOUTH PLAINS/ROLLING PLAINS

CITY           SKY/WX    TMP DP  RH WIND       PRES   REMARKS
LUBBOCK        CLOUDY    65  37  35 NE7       30.27F
SNYDER           N/A     67  40  37 CALM      30.23F
CHILDRESS      PTCLDY    69  45  41 NE5       30.24R
SEMINOLE       CLOUDY    62  48  59 CALM      30.28F
$$

PERMIAN BASIN

CITY           SKY/WX    TMP DP  RH WIND       PRES   REMARKS
MIDLAND        CLOUDY    67  36  31 N10       30.25F
ODESSA         CLOUDY    65  39  38 N6        30.26F
WINK           CLOUDY    57  54  89 W8        30.26S
$$

FAR WEST/SOUTHWEST MOUNTAINS/TRANS PECOS

CITY           SKY/WX    TMP DP  RH WIND       PRES   REMARKS
ALPINE         CLOUDY    50  49  98 NE7       30.37S
DRYDEN           N/A     61  57  87 NW6       30.20F
EL PASO        LGT RAIN  56  48  74 SE6       30.30S
FORT STOCKTON  LGT RAIN  55  54  96 W9        30.28F
GUADALUPE PASS CLOUDY    52  42  69 NE24      30.34S
MARFA          CLOUDY   N/A N/A N/A N13       30.31S
PECOS          LGT RAIN  57  56  95 W7        30.29
$$

DALLAS/FORT WORTH METROPLEX

CITY           SKY/WX    TMP DP  RH WIND       PRES   REMARKS
DFW AIRPORT    CLOUDY    68  58  70 N5        30.11S
FTW MEACHAM    CLOUDY    68  58  70 E6        30.12S
DAL-EXECUTIVE  CLOUDY    66  61  84 NE5       30.12R
GRAND PRAIRIE  CLOUDY    66  55  68 N6        30.13S
ADDISON        CLOUDY    66  63  88 NE9       30.12S
MESQUITE       CLOUDY    64  64 100 NW8       30.11S
LANCASTER      CLOUDY    65  61  87 N5        30.12S
$$

NORTH CENTRAL TEXAS

CITY           SKY/WX    TMP DP  RH WIND       PRES   REMARKS
SHRMAN/DENISON PTCLDY    68  61  77 E5        30.13S
GAINESVILLE      N/A     72  52  50 CALM      30.15R
BRIDGEPORT     MOCLDY    72  54  53 N6        30.15S
DENTON         CLOUDY    67  61  81 SE3       30.12S
WAXAHACHIE     CLOUDY    63  63 100 N8        30.13R
GRANBURY       CLOUDY    69  59  69 CALM      30.14S
$$

WESTERN NORTH TEXAS

CITY           SKY/WX    TMP DP  RH WIND       PRES   REMARKS
WICHITA FALLS  PTCLDY    69  48  47 NE8       30.16S
VERNON         CLOUDY    71  38  30 N6        30.20S
BRECKENRIDGE     N/A     71  48  43 N8        30.16S
COMANCHE       CLOUDY    67  60  76 NE5       30.15R
$$

CENTRAL AND SOUTH CENTRAL TEXAS

CITY           SKY/WX    TMP DP  RH WIND       PRES   REMARKS
AUSTIN/BERGSTM CLOUDY    69  63  81 N14       30.08R
WACO           CLOUDY    66  61  84 N12       30.11R
HILLSBORO      CLOUDY    64  60  87 N8        30.12R
TEMPLE         CLOUDY    66  61  84 N12       30.10S
KILLEEN-GRAY   CLOUDY    66  61  82 N9        30.12R
FORT HOOD      CLOUDY    65  61  86 N9        30.09R
GEORGETOWN     CLOUDY    68  61  77 N13       30.10R
LAGO VISTA     CLOUDY    67  63  87 N7        30.13R
SAN MARCOS     CLOUDY    68  64  88 N12       30.10R
NEW BRAUNFELS  CLOUDY    70  65  84 N16       30.07R
RANDOLPH AFB   CLOUDY    68  68 100 N10       30.07R
SAN ANTONIO    CLOUDY    69  64  84 N9G21     30.08R
STINSON        CLOUDY    72  65  78 N13       30.05R
PLEASANTON     NOT AVBL
LA GRANGE      CLOUDY    74  69  86 N7        30.03R
GIDDINGS       CLOUDY    69  65  88 N8        30.10R
$$

EAST TEXAS

CITY           SKY/WX    TMP DP  RH WIND       PRES   REMARKS
PARIS          CLOUDY    66  57  72 NE7       30.11S
CLARKSVILLE    NOT AVBL
TYLER          CLOUDY    73  66  78 N8        30.07R
LONGVIEW       PTCLDY    74  65  73 N6        30.05R
PALESTINE      CLOUDY    72  69  90 NW7       30.07R
NACOGDOCHES    CLOUDY    75  70  83 N6        30.03R
$$

TEXAS HILL COUNTRY AND EDWARDS PLATEAU

CITY           SKY/WX    TMP DP  RH WIND       PRES   REMARKS
LLANO          CLOUDY    66  66 100 CALM      30.17S
HORSESHOE BAY  CLOUDY    67  61  82 N6        30.13R
KERRVILLE      CLOUDY    63  60  91 N10G16    30.14R
FREDERICKSBRG  CLOUDY    62  59  88 N10       30.15R
ROCKSPRINGS    CLOUDY    61  57  88 N9        30.18S
HONDO          CLOUDY    72  64  76 N18       30.07R
UVALDE         MOCLDY    72  64  78 CALM      30.08R
DEL RIO        CLOUDY    65  62  90 NW12      30.13R
$$

SOUTHEAST TEXAS

CITY           SKY/WX    TMP DP  RH WIND       PRES   REMARKS
COLLEGE STN    CLOUDY    73  69  87 N9        30.05R
CALDWELL       NOT AVBL
CROCKETT       NOT AVBL
BRENHAM        CLOUDY    74  72  95 N8        30.05R FOG
HUNTSVILLE     CLOUDY    75  71  87 N7        30.03R
CONROE         CLOUDY    79  73  82 N7        30.01R
HOUSTON BUSH   LGT RAIN  75  70  84 NE16      30.00R
HOUSTON HOBBY  CLOUDY    78  74  87 CALM      29.98R
PERLAND        CLOUDY    77  73  87 CALM      30.00R
WHARTON        CLOUDY   N/A N/A N/A CALM      30.00R
$$

THE UPPER TEXAS COAST

CITY           SKY/WX    TMP DP  RH WIND       PRES   REMARKS
ORANGE         CLOUDY    76  76 100 CALM      30.00R
PORT ARTHUR    CLOUDY    77  75  93 NW5       29.98R
GALVESTON      CLOUDY    81  75  82 N7        29.98R
ANGLETON       CLOUDY    78  74  87 N3        29.98R
BAY CITY       CLOUDY    77  76  96 CALM      29.98S
$$

TEXAS COASTAL BEND, RIO GRANDE PLAINS DEEP SOUTH TEXAS

CITY           SKY/WX    TMP DP  RH WIND       PRES   REMARKS
VICTORIA       CLOUDY    74  70  87 E5        30.00R
BEEVILLE       DRIZZLE   76  76 100 E3        30.00S
ROCKPORT       CLOUDY    78  73  84 N12       29.98R
PORT ARANSAS   MOCLDY    78  75  91 N16       29.98R
PORT LAVACA    RAIN      73  73 100 CALM      29.99S
CORPUS CHRISTI CLOUDY    79  74  84 NE10      29.98R
KINGSVILLE NAS CLOUDY    78  76  93 NE3       29.98R
COTULLA        LGT RAIN  80  71  74 NE10      30.01R
LAREDO         CLOUDY    77  70  79 NE16      30.00R
BROWNSVILLE    MOCLDY    83  75  77 NE10      29.93R
PORT ISABEL    CLOUDY    82  75  79 NE10      29.93R
HEBBRONVILLE   CLOUDY    75  70  84 NE7       30.00S
MCALLEN        CLOUDY    81  75  82 N5        29.95R
WESLACO        CLOUDY    81  72  74 NE6       29.94R
FALFURRIAS     PTCLDY    78  73  84 N8        29.96S
EDINBURG       CLOUDY    83  73  70 NE9       29.96R
$$




USA.gov is the U.S. government's official web portal to all federal, state and local government web resources and services.